Vorticity
nan nan nan nan nan nan nan nan nan nan nan nan nan nan nan nan nan nan nan nan nan nan nan nan nan nan nan nan nan nan nan nan nan nan nan nan nan nan nan nan nan nan nan nan
nan 10 11 8 9 8 6 10 6 10 10 6 17 14 12 7 7 6 5 6 8 7 9 11 8 7 7 8 6 7 7 7 5 6 8 9 10 9 9 10 11 10 10 nan
nan 7 13 8 5 8 6 7 9 12 2 4 9 9 13 5 8 10 8 8 10 12 6 7 9 7 6 7 9 7 7 7 8 6 5 7 8 9 9 9 11 11 9 nan
nan 11 8 7 7 8 6 12 8 13 7 5 2 10 10 16 7 5 8 10 10 9 8 8 6 7 7 7 7 7 9 8 8 8 6 7 7 7 8 9 10 10 9 nan
nan 11 9 8 9 7 10 13 14 11 5 4 5 10 15 14 8 9 9 7 9 9 10 8 8 8 5 6 7 8 8 7 8 8 7 7 7 8 9 11 10 7 8 nan
nan 6 10 8 9 6 10 6 7 13 14 9 10 3 11 14 8 4 7 12 11 9 9 8 7 7 8 7 7 8 8 6 8 8 8 8 7 7 8 8 7 7 7 nan
nan 9 9 9 9 9 7 7 6 7 11 13 11 6 15 13 11 13 8 6 9 9 9 8 8 7 8 8 6 7 8 7 7 7 8 9 9 8 7 7 8 8 8 nan
nan 9 8 8 13 9 7 7 7 9 7 12 10 6 15 18 14 12 11 13 9 9 10 9 8 7 7 7 7 6 6 7 7 8 8 9 8 7 9 8 8 9 9 nan
nan 8 9 12 13 5 4 11 9 3 8 12 5 2 10 21 25 17 12 11 10 10 10 10 8 8 7 8 9 7 6 6 7 7 7 8 8 9 8 9 8 9 8 nan
nan 13 10 12 10 10 12 1 6 13 13 5 8 11 11 10 14 15 13 9 10 10 10 11 10 9 8 8 9 9 9 9 7 7 7 8 8 8 8 10 9 8 9 nan
nan 6 6 11 10 8 7 5 8 11 9 11 8 9 12 9 17 16 9 10 10 10 10 9 9 9 8 8 10 9 10 10 8 7 8 8 8 9 9 8 8 8 9 nan
nan 5 12 4 6 13 12 10 7 4 7 10 13 9 14 14 14 13 12 9 11 13 12 10 10 9 8 9 9 9 9 9 8 8 8 7 7 8 7 7 9 9 8 nan
nan 7 5 5 14 16 12 12 6 9 18 14 3 8 10 14 14 12 10 11 11 8 10 11 10 10 9 10 9 10 9 8 8 10 7 6 7 7 9 8 7 8 9 nan
nan 9 15 3 3 8 7 10 10 6 6 11 5 9 8 12 9 8 9 14 13 10 9 8 9 11 10 10 11 10 10 10 9 9 9 7 7 7 8 9 8 8 9 nan
nan 4 12 13 7 2 6 5 10 6 10 9 14 9 10 12 13 12 8 9 13 13 11 11 9 11 11 10 11 10 11 11 11 9 8 11 8 8 9 9 8 9 9 nan
nan 16 12 9 17 11 7 9 12 8 6 11 16 9 16 8 8 19 15 8 7 14 14 11 9 10 14 13 11 10 11 11 11 10 8 3 6 13 12 8 9 8 8 nan
nan 13 12 12 12 9 11 19 15 16 10 9 8 11 9 12 9 10 10 13 9 9 13 11 11 9 10 13 13 14 11 11 12 10 14 11 10 5 9 7 8 9 9 nan
nan 10 11 18 9 10 7 19 14 4 4 8 10 19 14 15 10 2 16 17 11 10 9 9 10 11 11 12 12 13 15 13 11 10 9 11 9 6 8 11 9 7 12 nan
nan 12 13 16 8 5 6 10 12 5 11 10 12 14 14 10 10 9 15 14 14 8 10 12 10 10 12 11 14 13 12 12 11 12 11 11 7 10 10 10 8 10 9 nan
nan 10 12 12 15 7 2 -3 9 18 7 11 14 16 19 14 8 0 11 17 14 13 10 11 8 8 10 14 16 13 12 12 12 10 9 12 14 15 13 11 12 14 11 nan
nan 11 9 12 13 6 1 13 22 17 7 9 15 12 12 14 13 11 9 11 12 9 7 13 16 10 11 16 13 12 13 10 13 14 12 12 12 12 12 15 15 14 11 nan
nan 10 8 11 7 1 6 24 18 4 14 12 12 13 12 11 10 11 8 9 8 7 9 11 12 13 18 13 12 14 12 14 12 10 9 9 8 9 9 8 5 9 17 nan
nan 12 13 12 7 3 11 11 6 13 13 8 11 12 9 9 9 9 10 8 8 11 13 12 14 16 17 15 12 11 12 13 11 10 9 8 8 9 9 8 5 5 12 nan
nan 11 10 9 11 10 13 10 11 11 10 12 7 9 8 8 7 7 8 9 11 9 12 14 17 17 15 18 16 13 11 9 8 8 9 11 10 8 8 7 13 13 10 nan
nan 11 9 6 12 15 7 10 7 14 11 11 13 10 8 10 9 7 8 12 15 12 9 11 13 13 13 13 13 9 13 11 8 7 6 6 2 9 14 12 15 14 12 nan
nan nan nan nan nan nan nan nan nan nan nan nan nan nan nan nan nan nan nan nan nan nan nan nan nan nan nan nan nan nan nan nan nan nan nan nan nan nan nan nan nan nan nan nan
CAPE
0 0 0 0 0 0 0 0 9 13 0 85 101 133 130 179 119 121 164 166 161 166 102 168 417 367 194 226 651 605 711 1065 1134 1184 1255 1280 1529 1267 1037 878 1064 1035 699 922
0 0 0 0 0 0 0 0 0 0 3 57 73 137 73 62 71 75 80 77 101 119 68 133 219 247 179 193 314 220 442 747 1196 1143 986 1052 1002 874 817 868 1192 965 761 727
0 0 0 0 0 0 0 0 0 0 0 78 119 121 167 122 120 94 120 124 119 82 74 80 121 129 257 227 266 312 311 817 1140 1154 974 1058 822 583 557 662 678 317 395 390
0 0 0 0 0 0 0 0 0 0 0 6 74 48 85 147 188 224 255 210 251 225 103 87 156 231 335 291 355 433 561 968 1085 1048 1216 1251 1176 507 23 132 132 4 0 0
0 0 0 0 0 0 0 0 0 0 0 11 17 14 48 63 143 181 213 152 359 371 173 131 181 277 396 448 675 699 890 1115 1257 1143 1325 1107 186 0 0 0 0 0 0 0
0 0 0 0 0 0 0 0 0 0 0 1 9 0 0 17 116 144 114 115 355 256 438 219 215 277 365 627 929 1132 1125 1276 1328 1142 932 630 2 0 0 0 0 0 0 0
0 0 0 0 0 0 0 0 0 0 0 0 0 0 0 0 71 89 69 25 173 212 571 487 473 385 414 737 1054 1328 1310 1306 1197 826 251 21 0 0 0 0 0 0 0 0
0 0 0 0 0 0 0 0 0 0 0 0 0 0 0 0 12 37 26 18 105 122 461 662 698 534 477 919 1120 1421 1462 1343 639 81 0 0 0 0 0 0 0 0 0 0
0 0 0 0 0 0 0 0 0 0 0 0 0 0 0 0 0 4 0 0 65 96 270 696 812 583 617 963 1141 1367 1593 1428 360 0 0 0 0 0 0 0 0 0 0 0
0 0 0 0 0 0 0 0 0 0 0 0 0 0 0 0 0 0 0 0 31 85 151 466 747 505 736 1087 1210 1265 1525 1459 476 0 0 0 0 0 0 0 0 0 0 0
0 0 0 0 0 0 0 0 0 0 0 0 0 0 0 0 0 0 0 0 6 66 110 198 386 381 401 991 1196 1283 1364 1222 457 6 0 0 0 0 0 0 0 0 0 0
0 0 0 0 0 0 0 0 0 0 0 0 0 0 0 0 0 0 0 0 0 0 60 133 179 274 271 549 897 1264 1401 975 477 55 0 0 0 0 0 0 0 0 0 0
0 0 0 0 0 0 0 0 0 0 0 0 0 0 0 0 0 0 0 0 0 0 15 87 128 174 233 491 787 1137 1506 1084 576 60 0 0 0 0 0 0 0 0 0 0
0 0 0 0 0 0 0 0 0 0 0 0 0 0 0 0 0 0 0 0 0 0 0 1 29 119 223 340 774 1091 1546 1297 763 157 42 0 2 1 2 0 0 0 0 0
0 0 0 0 0 0 0 0 0 0 0 0 0 0 0 0 0 0 0 0 0 0 0 0 0 0 36 159 578 1058 1435 1387 868 425 193 25 47 14 17 15 3 0 0 8
0 0 0 0 0 0 0 0 0 0 0 0 0 0 0 0 0 0 0 0 0 0 0 0 1 0 0 116 507 921 1341 1444 916 634 404 61 16 0 2 6 7 0 5 22
0 0 0 0 0 0 0 0 0 0 0 0 0 0 0 0 0 0 0 0 0 0 1 2 0 69 185 283 515 869 1221 1285 840 743 297 15 5 1 0 0 1 14 33 32
0 0 0 0 0 0 0 0 0 1 2 0 0 0 0 0 0 0 0 0 0 0 0 171 170 91 448 521 671 793 1031 959 716 466 67 39 25 85 15 17 51 124 140 76
0 0 0 0 0 0 6 17 5 3 13 0 0 0 0 0 0 0 0 0 0 0 0 0 25 231 398 899 946 668 661 689 561 398 78 60 16 65 70 53 137 237 132 197
0 0 0 0 0 0 0 5 7 0 20 0 0 0 0 0 10 0 0 0 0 0 0 0 0 9 359 382 933 495 318 396 423 321 96 79 127 162 119 160 268 223 280 283
42 25 0 1 3 31 0 0 0 36 4 0 0 0 0 0 0 0 0 0 0 0 0 1 30 382 662 601 489 380 234 284 136 0 0 28 89 196 158 138 176 214 112 79
22 167 117 49 5 32 0 13 64 1 0 0 0 0 0 0 0 0 0 0 0 1 0 0 26 273 701 431 404 116 86 2 0 0 0 0 0 0 0 0 0 0 22 4
27 88 111 10 1 0 0 0 0 0 0 0 0 0 0 56 58 84 95 128 198 288 372 247 118 80 538 313 109 0 1 0 0 0 0 0 0 0 0 0 0 0 5 12
1 7 0 16 10 6 0 0 0 0 0 0 0 0 0 74 347 55 19 464 530 347 457 422 428 309 62 15 0 0 0 0 0 0 0 0 0 0 0 0 0 23 14 2
1 98 77 78 56 0 0 0 0 0 0 0 0 0 0 0 0 6 266 436 552 452 36 1 0 0 1 0 0 0 0 0 0 0 0 0 0 0 0 0 1 0 0 1
2 100 156 51 55 0 0 0 0 0 0 0 0 0 0 0 0 0 196 553 247 131 8 2 0 0 0 0 0 0 0 0 0 0 0 0 0 0 0 0 0 0 0 0